Theta_e
314 318 319 316 315 315 318 320 321 321 322 321 321 322 322 322 322 323 324 325 325 326 327 328 325 326 326 331 332 332 331 334 333 332 329 326 326 326 327 330 332 333 336
315 316 316 314 314 317 319 320 320 320 321 318 320 318 320 322 323 323 322 322 323 324 323 325 325 327 328 331 332 332 332 331 329 327 326 327 327 326 326 327 329 331 332
312 314 314 309 315 318 319 319 320 320 319 319 318 321 321 320 321 322 323 323 323 324 325 325 326 328 329 329 328 329 330 330 331 330 329 329 328 328 328 328 325 325 325
312 314 313 310 316 318 318 317 318 319 319 320 318 318 317 320 320 320 320 319 320 320 321 322 323 322 320 323 322 322 321 319 321 321 321 323 327 328 328 327 327 326 326
312 312 313 310 313 314 312 315 316 317 316 318 319 318 317 320 318 318 318 318 318 318 318 317 317 317 317 319 319 317 320 316 318 319 320 319 318 319 320 322 322 323 323
312 312 313 312 313 310 306 317 318 317 315 315 318 318 318 318 316 315 316 316 317 316 316 316 316 315 315 314 314 315 316 315 313 312 311 315 318 317 318 308 308 312 316
310 312 310 314 314 311 304 313 317 316 314 311 314 315 318 320 319 316 314 312 316 315 315 314 315 313 314 314 314 313 312 313 313 312 312 313 310 310 308 307 306 306 306
308 309 309 313 312 311 306 308 314 311 311 309 308 313 314 317 310 316 313 312 312 311 313 311 311 311 313 314 312 310 309 309 308 308 307 307 308 311 312 310 308 307 306
307 307 310 310 310 307 307 308 308 311 309 307 307 308 311 307 314 315 313 312 312 311 310 311 310 309 309 308 308 307 306 305 303 299 299 300 302 305 307 311 312 310 310
309 309 307 310 312 311 307 307 307 308 307 306 306 307 309 307 308 308 309 310 313 309 307 306 306 306 306 305 305 305 305 305 304 303 302 301 299 298 300 303 310 312 311
312 311 312 312 314 312 311 309 306 305 306 307 307 307 307 307 307 307 307 307 307 306 306 307 308 306 306 306 306 306 306 305 303 303 304 304 302 300 298 301 304 308 309
313 313 314 313 312 313 310 312 310 305 307 308 308 307 307 307 307 307 307 307 307 307 306 308 308 306 306 306 306 306 306 305 305 304 304 304 303 303 302 301 299 304 306
315 315 312 313 312 313 312 312 310 309 303 305 308 308 308 308 307 308 308 308 307 307 307 307 307 307 307 307 307 307 306 306 305 303 303 304 303 303 303 302 302 302 303
315 315 314 310 310 312 312 311 310 307 306 308 308 306 308 308 307 308 308 308 307 307 306 307 307 308 308 308 307 307 306 305 306 304 304 303 302 303 303 302 301 301 302
316 315 313 313 311 309 311 312 310 308 309 309 309 307 307 306 307 306 306 307 306 307 307 307 307 307 307 307 307 307 307 307 305 305 304 304 303 303 302 301 301 300 300
314 314 313 312 310 306 310 311 311 309 309 309 308 308 308 307 308 307 307 307 308 309 308 307 306 307 305 306 307 307 307 306 306 305 305 304 303 302 302 301 300 299 299
314 314 313 311 310 307 309 311 311 309 309 310 309 309 308 309 309 309 308 308 308 309 309 307 306 303 306 306 305 307 306 307 306 305 305 304 303 303 302 300 299 299 298
313 312 312 311 310 307 308 309 310 310 310 309 310 310 309 310 310 310 310 309 309 309 308 307 303 305 305 306 306 306 305 305 305 305 305 304 303 302 301 300 299 298 299
311 313 313 311 309 308 307 310 311 311 310 310 309 310 311 311 311 311 311 309 309 308 308 302 304 304 305 305 304 304 304 304 302 303 303 303 302 302 300 299 299 299 299
313 313 312 312 310 309 308 308 309 309 309 310 310 310 310 310 312 311 310 309 308 308 304 303 304 304 304 305 304 303 303 302 301 301 302 302 301 300 300 300 299 299 299
314 314 313 312 312 311 309 309 310 310 310 308 306 308 308 310 311 311 310 309 308 306 302 302 303 303 304 303 303 302 301 300 300 300 300 300 300 300 300 300 299 299 299
315 314 314 312 312 311 310 310 309 309 309 306 308 308 311 311 311 310 310 309 307 302 301 301 302 304 304 303 302 302 301 300 300 301 301 301 301 300 299 300 300 300 299
315 314 313 312 311 311 311 311 311 309 308 308 310 312 311 312 310 310 308 307 305 303 298 302 304 303 303 302 302 302 301 301 301 301 302 301 300 300 300 300 300 300 299
315 314 313 312 312 311 311 311 311 312 312 312 310 311 312 312 310 309 307 304 300 300 301 304 303 302 302 302 302 302 302 302 302 301 301 300 300 300 300 300 300 300 301
315 313 313 312 312 312 310 312 313 313 312 311 310 309 309 311 308 305 301 300 301 300 300 301 301 301 302 303 303 302 302 302 302 301 301 301 300 301 300 300 300 300 300
314 313 312 312 311 310 311 312 313 313 310 306 303 302 306 306 302 301 301 302 301 301 301 302 302 302 303 303 302 302 302 302 302 302 302 302 302 301 301 302 302 301 301
Wind_Speed
6 7 8 9 10 12 14 15 13 13 10 13 13 16 13 12 12 9 11 14 14 16 16 16 16 13 11 11 13 13 13 16 16 16 16 15 14 13 13 15 16 16 14
5 5 9 11 7 10 10 9 11 9 11 16 14 13 16 14 17 14 7 12 13 14 14 12 12 7 5 7 6 8 7 9 14 17 17 16 14 13 12 12 12 11 11
4 7 11 8 8 6 3 3 5 7 11 13 14 15 16 18 20 19 19 19 17 16 14 16 13 10 5 11 13 14 11 7 8 15 16 16 12 10 8 8 9 9 9
5 8 11 5 4 1 3 2 5 7 6 10 11 11 10 12 16 18 20 20 19 16 13 11 13 15 15 8 10 9 10 17 8 20 24 22 18 15 11 8 6 5 6
5 8 9 4 6 7 4 4 12 6 7 2 5 8 9 6 11 13 16 17 16 17 17 18 18 17 18 14 13 12 10 20 21 13 7 13 14 11 6 5 1 2 3
4 5 6 5 8 10 6 2 5 6 12 9 0 2 4 8 7 13 13 12 11 12 14 16 16 18 18 21 19 18 15 13 17 16 15 8 2 4 8 4 2 2 3
4 1 4 5 8 11 9 4 6 8 13 14 5 3 1 6 6 11 12 12 10 10 13 16 17 18 16 15 16 16 14 12 10 10 9 10 12 11 6 3 4 5 5
4 1 6 5 6 8 7 7 8 12 12 16 16 8 8 8 10 5 12 12 12 13 13 16 15 13 11 11 13 14 14 13 16 15 10 6 2 1 3 5 6 7 7
3 6 6 4 3 4 9 7 6 7 7 12 16 14 5 7 6 4 9 9 10 11 9 8 10 8 8 9 12 15 18 18 20 13 11 10 9 7 5 3 7 9 9
4 5 6 3 6 9 9 7 5 4 6 11 12 14 11 14 11 5 16 11 5 5 4 7 12 6 8 12 13 14 15 18 20 13 13 14 11 8 7 6 6 5 8
3 5 6 5 5 6 10 11 13 6 10 11 12 11 8 8 12 15 15 13 14 2 6 12 14 6 7 8 12 10 15 20 20 23 16 19 18 12 8 7 6 8 7
4 5 2 3 5 3 6 9 10 11 8 8 10 11 13 11 12 12 15 13 14 18 4 13 12 4 6 9 11 14 19 19 20 20 21 20 22 17 14 12 10 8 8
3 3 1 1 4 2 8 6 7 9 8 5 6 8 9 8 9 8 11 13 14 15 10 13 14 8 15 16 17 15 19 19 22 18 23 20 18 18 16 18 18 15 13
6 6 4 4 2 6 2 3 5 6 7 8 9 10 5 7 5 7 10 11 14 17 15 14 16 13 17 15 18 20 24 22 20 17 23 15 20 19 24 25 24 24 21
10 7 5 5 3 7 5 3 1 5 8 5 6 8 8 7 5 10 10 10 11 16 20 23 20 20 20 20 21 23 23 21 19 16 15 18 20 22 25 26 29 31 27
10 9 7 5 3 3 6 6 4 2 6 4 5 5 7 8 7 11 13 12 12 17 19 23 22 23 23 17 18 19 20 20 17 16 17 19 22 22 26 27 29 26 22
14 12 7 4 3 2 7 7 4 3 1 3 6 6 10 10 11 13 18 17 15 15 21 22 25 25 19 21 21 17 16 17 17 17 18 21 21 23 26 25 23 23 18
16 12 7 6 5 4 5 6 7 2 6 6 8 10 13 14 16 20 20 19 18 17 21 23 23 21 22 15 13 13 12 13 17 18 18 16 20 27 23 24 22 16 16
10 12 10 8 8 6 5 7 8 8 8 10 10 12 15 19 21 19 20 16 14 16 18 21 21 21 18 23 22 19 19 19 22 18 17 21 24 22 18 21 16 15 15
8 12 8 5 6 7 7 4 3 5 8 11 14 17 20 21 21 20 21 13 17 16 20 20 21 21 21 21 24 23 25 27 24 21 18 17 19 19 18 18 15 14 14
11 8 7 6 7 8 10 10 10 11 12 17 18 19 20 17 20 16 11 14 15 17 22 23 23 21 21 22 21 24 24 24 21 15 14 15 20 19 17 13 14 14 16
12 11 10 8 8 8 6 9 9 12 16 16 19 21 18 20 19 16 13 14 16 18 25 23 21 17 17 20 23 24 22 18 18 15 21 21 18 18 12 13 15 16 16
14 14 11 9 10 10 11 11 12 12 14 17 21 20 21 21 18 14 13 16 20 25 19 14 13 15 19 22 22 22 17 17 17 18 23 27 18 16 14 17 20 17 11
13 12 10 12 11 12 12 13 11 14 16 19 20 20 19 14 12 12 16 23 24 17 12 12 16 18 22 18 16 16 18 19 19 18 18 25 18 16 17 15 4 3 7
11 9 10 9 10 10 9 10 13 15 18 17 18 20 15 9 8 17 22 19 18 16 14 14 16 15 12 12 15 17 18 19 21 21 21 20 22 24 22 7 6 9 12
9 10 8 7 8 9 8 11 13 15 16 13 17 17 11 7 15 18 19 17 18 19 17 13 12 10 12 13 15 16 18 20 21 24 21 24 23 22 19 14 22 13 11
Wind_Direction
41 28 360 351 357 26 35 49 36 39 22 359 19 27 10 8 351 306 318 320 328 328 335 310 291 293 274 268 272 262 253 248 244 237 227 218 214 209 205 208 214 222 227
53 6 357 9 28 39 30 44 51 38 25 31 36 34 29 28 33 35 344 303 319 330 330 326 317 301 259 251 244 237 226 243 242 229 217 207 199 194 190 192 199 205 211
27 8 15 37 57 48 3 60 96 74 35 24 39 42 32 24 25 33 39 39 37 39 35 47 56 63 124 107 131 109 140 167 127 187 175 177 156 149 145 155 183 196 199
29 26 28 58 53 25 317 54 97 89 51 53 40 39 34 33 32 39 48 45 45 49 43 48 46 44 38 30 49 26 29 27 20 325 61 88 130 138 137 143 172 181 199
30 24 23 41 23 323 0 88 74 67 14 357 41 31 27 59 32 31 28 38 40 39 41 48 52 48 39 30 29 4 328 349 11 4 313 327 23 47 100 102 119 182 213
45 29 19 28 36 21 45 112 74 47 28 18 32 74 360 55 52 46 31 9 21 14 47 33 35 37 38 41 42 43 44 31 33 39 31 32 39 244 334 7 344 263 265
93 299 57 40 41 25 47 85 97 76 44 20 270 247 156 118 78 20 31 35 23 7 39 38 41 32 37 31 43 47 42 32 18 23 34 53 47 14 8 304 300 294 279
57 150 103 119 43 13 53 72 122 80 65 40 30 76 51 143 1 4 20 37 58 61 62 46 34 33 24 33 26 15 18 4 349 343 331 351 40 24 346 324 312 305 295
54 116 131 131 73 5 33 71 74 89 73 66 54 50 60 28 80 39 26 18 72 82 62 52 46 35 23 1 346 352 349 349 350 342 333 316 299 285 271 271 302 300 295
78 85 110 115 56 37 47 62 36 78 82 84 81 65 97 62 44 26 44 38 95 96 44 14 12 347 337 335 347 350 349 350 348 345 358 359 342 316 304 266 236 275 287
106 68 72 79 62 31 41 39 45 88 93 87 71 60 53 68 48 42 27 18 52 2 330 11 12 323 324 345 348 341 337 343 350 351 353 351 350 343 323 307 286 267 276
104 102 87 54 119 64 26 40 44 53 117 97 87 71 52 38 31 27 20 17 10 22 44 25 10 10 12 1 348 341 329 332 338 345 340 335 337 336 341 328 306 293 278
165 171 352 199 110 65 23 72 28 37 98 112 95 71 63 58 36 25 16 7 349 360 3 12 16 7 337 322 320 321 320 326 326 330 327 325 324 322 328 327 324 310 300
235 233 309 187 150 134 68 73 21 10 89 80 57 33 24 31 18 4 5 358 346 334 336 335 342 340 342 333 320 316 321 323 316 318 315 314 317 319 323 323 319 312 298
209 238 261 191 234 165 184 196 305 31 84 40 44 30 22 22 9 353 344 341 349 342 323 321 325 325 325 313 321 317 316 315 308 305 324 315 323 321 324 319 317 312 304
209 220 194 213 228 183 175 190 209 29 81 49 4 354 356 360 340 347 337 327 319 319 318 324 326 326 321 312 307 311 311 309 306 306 302 312 316 316 321 319 313 313 310
213 210 215 195 186 307 196 212 193 87 297 311 327 325 327 329 323 324 318 310 311 313 313 318 324 324 329 331 324 305 312 308 311 306 301 303 310 312 315 319 314 311 305
220 222 172 197 201 254 255 199 174 259 241 272 292 296 303 312 309 307 316 304 307 305 311 313 326 329 331 338 329 315 321 309 304 308 301 304 301 308 312 313 310 305 307
197 179 197 223 206 243 273 203 209 231 251 276 292 303 303 304 306 311 308 308 311 300 302 318 320 321 325 321 316 313 306 306 311 299 301 298 303 310 321 314 312 309 304
178 187 210 210 193 231 273 256 270 288 298 292 295 298 300 302 306 304 306 299 307 301 318 316 315 316 314 312 319 321 321 323 317 315 303 305 314 317 318 311 308 312 308
208 221 222 205 216 245 251 249 258 263 281 299 299 308 313 311 312 311 303 295 294 311 321 311 309 314 304 309 320 325 323 323 323 327 315 318 314 315 313 310 310 310 311
199 212 226 235 234 258 262 265 254 267 291 297 308 317 315 319 308 315 285 279 305 313 318 308 315 312 312 322 325 325 327 332 337 349 330 328 323 322 314 304 301 301 302
212 213 219 228 244 249 259 277 287 295 299 310 319 321 318 309 304 287 281 296 308 310 308 315 311 312 312 320 323 320 318 322 320 326 318 315 332 318 315 312 301 284 275
210 220 226 234 246 255 254 265 283 297 306 318 314 318 305 294 289 282 313 319 318 325 299 295 296 305 310 314 316 317 324 323 318 323 328 320 339 326 332 331 330 314 291
210 218 231 247 250 261 251 257 278 291 309 310 312 314 320 282 299 329 338 341 348 350 334 301 298 303 312 314 330 314 322 326 325 329 328 330 340 332 346 11 346 317 299
215 227 235 239 254 251 238 262 282 289 306 316 321 314 315 326 342 346 350 353 343 347 346 346 334 331 328 329 345 324 326 315 314 318 324 317 327 328 331 328 331 334 321